sat.trackr.live / text

‹ back to catalog

STARLINK-33868

NORAD 63703 · 2025-087G

PAYLOAD ACTIVE UNKNOWN

§ Identity

Operator
Country
US
Launch date
2025-04-28
Launch site
AFWTR
Launch vehicle
Mass (kg)
RCS (m²)

Purposes: comms

External: N2YO · Heavens-Above · Gunter

§ Orbital elements

Epoch: 2026-09-20T15:25:49.962432Z

Period
93.85 min
Inclination
53.1589°
Eccentricity
0.0001322
Mean motion
15.34410532 rev/d
Perigee alt
461.8 km
Apogee alt
463.6 km
Semi-major
6,840.8 km
B*
9.0073e-4
RAAN
32.8990°
Arg perigee
88.4319°
Mean anomaly
271.6835°
Rev number
7,906

§ Raw data

STARLINK-338681 63703U 25087G   26263.64293938  .00030189  00000+0  90073-3 0  99962 63703  53.1589  32.8990 0001322  88.4319 271.6835 15.34410532 79066

JSON: /api/v1/satellites/63703 · /tle

For live sub-satellite position, see the globe view (requires WebGL).

§ Visibility from observer

Set your observer location to see the next 7 days of passes ≥ 10°. The values pass through the URL so the page stays shareable.

No JS? Fill the form by hand. The geolocation button needs JavaScript.